Вернуться в каталог

SL-16 DEB

АктивенLEO
NORAD 19659·DEBRIS·🇷🇺 Russia

Запущен Nov 23, 1988 с Baikonur Cosmodrome

Loading…

Ближайшие Пролёты (ближайшие 24 часа)

TLE

СвежийSource: Space-Track

Эпоха: Sep 14, 2026, 12:42 UTC

1 19659U 88102F   26257.52942424  .00000035  00000-0  68329-4 0  9993
2 19659  71.0355 201.3600 0184616 122.9406 355.0273 13.77421998899085

Отслеживайте SL-16 DEB в реальном времени с AllMySat

Download on the App Store